Tracking 27188 objects as of 1-Apr-2023
HD Live streaming from Space Station
objects crossing your sky now

RADUGA 1-4

Track RADUGA 1-4 now!
RADUGA 1-4 is classified as:


NORAD ID: 25642
Int'l Code: 1999-010A
Perigee: 35,767.9 km
Apogee: 35,775.8 km
Inclination: 15.3 °
Period: 1,435.0 minutes
Semi major axis: 42142 km
RCS: 12.5893 m2 (large)
Launch date: February 28, 1999
Source: Commonwealth of Independent States (former USSR) (CIS)
Launch site: TYURATAM MISSILE AND SPACE COMPLEX (TTMTR)

Military communication.
Your satellite tracking list
Your tracking list is empty




NASA's NSSDC Master Catalog

Two Line Element Set (TLE):
1 25642U 99010A   23090.69440115 -.00000249  00000-0  00000+0 0  9997
2 25642  15.2970  11.3320 0000934 283.1868 232.9015  1.00349991 88203
Source of the keplerian elements: AFSPC